Regional Weather Roundup
Issued by NWS Wakefield, VA

Home | Current Version | Previous Version | Graphics & Text | Print | Product List | Glossary On
Versions: 1 2 3 4 5 6 7 8 9 10 11 12 13 14 15 16 17 18 19 20 21 22 23 24 25 26 27 28 29 30 31 32 33 34 35 36 37 38 39 40 41 42 43 44 45 46 47 48 49 50
735
ASUS41 KAKQ 270815
RWRAKQ

REGIONAL WEATHER ROUNDUP
NATIONAL WEATHER SERVICE WAKEFIELD VA
400 AM EDT FRI MAY 27 2016

Note: "fair" indicates few or no clouds below 12,000 feet with no
significant weather and/or obstructions to visibility. * = Denotes
station may not report precipitation (e.g., rain,snow,etc.),
thunder or fog.

VAZ042-051-052>054-056-270900-
NORTHERN VIRGINIA

CITY           SKY/WX    TMP DP  RH WIND       PRES   REMARKS
WASH NATIONAL  CLOUDY    71  64  78 S8        30.07R
DULLES         FAIR      71  64  78 S6        30.06S
FORT BELVOIR   FAIR      65  64  95 CALM      30.07R
QUANTICO       FAIR      70  66  87 CALM      30.08R
FREDERICKSBRG* NOT AVBL
STAFFORD*      FAIR      64  62  93 CALM      30.11R
WARRENTON      FAIR      65  60  85 CALM      30.06S
CULPEPER*      FAIR      65  65  99 CALM      30.07S
MANASSAS*      FAIR      66  64  94 CALM      30.07R
LEESBURG*      FAIR      70  68  94 CALM      30.07S
WINCHESTER     FAIR      68  64  88 SW5       30.07S
FRONT ROYAL*   FAIR      68  63  83 SW5       30.06F
LURAY*         FAIR      64  64 100 SW3       30.09F
$$

VAZ048-049-060>072-079>083-270900-
CENTRAL AND SOUTH CENTRAL VIRGINIA

CITY           SKY/WX    TMP DP  RH WIND       PRES   REMARKS
RICHMOND       FAIR      69  65  86 S12       30.10R
CHESTERFIELD*  FAIR      70  55  60 S5        30.11S
PETERSBURG*    FAIR      69  67  93 S3        30.12R
HANOVER        FAIR      72  64  76 S6        30.11R
TAPPAHANNOCK*  FAIR      71  65  79 S5        30.10R
QUINTON*       FAIR      71  64  80 SW5       30.10R
CHARLOTTSVILLE CLOUDY    67  62  84 CALM      30.08R
GORDONSVILLE*  FAIR      64  64  98 CALM      30.07S
ORANGE*        FAIR      64  64 100 CALM      30.09S
LOUISA*        FAIR      72  68  88 CALM      30.08R
BUMPASS*       FAIR      69  64  85 CALM      30.09R
FARMVILLE*     FAIR      68  66  93 S5        30.09R
CREWE*         FAIR      70  67  92 SW5       30.10S
FORT PICKETT*  NOT AVBL
CHASE CITY*    FAIR      71  65  83 CALM      30.12R
CLARKSVILLE*   FAIR      68  63  83 S5        30.12R
SOUTH HILL*    FAIR      66  63  92 S6        30.18R
LAWRENCEVILLE* FAIR      68  64  86 S3        30.12S
EMPORIA*       CLOUDY    68  61  77 SE3       30.14R
$$

VAZ088>098-270900-
SOUTHEAST VIRGINIA

CITY           SKY/WX    TMP DP  RH WIND       PRES   REMARKS
NORFOLK        CLOUDY    71  62  73 SW14      30.13R
VIRGINIA BEACH MOCLDY    74  63  68 SW12      30.13R
NORFOLK NAVAL  MOCLDY    71  63  75 SW9       30.15R
WEST POINT*    FAIR      72  61  70 CALM      30.12R
SALUDA*        FAIR      72  64  75 SW10G16   30.10R
NEWPORT NEWS   FAIR      71  61  70 SW13      30.12R
LANGLEY AFB    MOCLDY    72  61  68 SW13      30.13R
FORT EUSTIS    MOCLDY    71  61  70 VRB6      30.10S
WILLIAMSBURG*  FAIR      72  63  73 S12       30.12S
HR EXEC AP*    FAIR      70  63  78 SW7       30.16R
FRANKLIN*      CLOUDY    69  61  75 S8        30.14S
US460-WAKEFLD  FAIR      69  60  73 VRB5      30.12R
$$

VAZ020-022-025-037-045-270900-
WEST CENTRAL AND SOUTHWEST VIRGINIA

CITY           SKY/WX    TMP DP  RH WIND       PRES   REMARKS
STAUNTON*      FAIR      59  59  98 CALM      30.13S FOG
WAYNESBORO*    FAIR      62  60  94 CALM      30.12S
HOT SPRINGS VA CLOUDY    64  59  86 W7        30.20F
LYNCHBURG      FAIR      63  63 100 CALM      30.12S
DANVILLE       MOCLDY    68  63  84 W3        30.12R
SOUTH BOSTON*  FAIR      69  66  92 SW3       30.12R
MARTINSVILLE   CLOUDY    61  61 100 CALM      30.15F FOG
ROANOKE        FAIR      65  63  93 W3        30.13S
BLACKSBURG     FAIR      63  62  97 CALM      30.18S
DUBLIN*        CLOUDY    63  63  99 CALM      30.17S
MARION*        CLOUDY    58  57  96 CALM      30.20S FOG
HILLSVILLE*    CLOUDY    64  62  94 SE3       30.17F
RICHLANDS*     FAIR      61  54  77 CALM      30.17S
WISE*          CLOUDY    61  59  94 CALM      30.17F
ABINGDON*      FAIR      62  62  99 SE3       30.15S
$$

MDZ021>025-VAZ099-100-270900-
SOUTHERN MARYLAND AND THE DELMARVA PENINSULA

CITY           SKY/WX    TMP DP  RH WIND       PRES   REMARKS
PATUXENT RIVER PTCLDY    72  64  76 SW13      30.07R
BAY BRIDGE APT PTCLDY    72  64  78 S5        30.06R
LEONARDTOWN    PTCLDY    72  63  73 SW7       30.10R
DOVER          CLOUDY    72  69  91 S9        30.05S
GEORGETOWN     PTCLDY    69  63  81 S7        30.09S
EASTON         CLEAR     73  70  91 SW6       30.11R
CAMBRIDGE        N/A     68  64  88 S5        30.08R
SALISBURY      CLEAR     68  63  84 S7        30.09S
OCEAN CITY     PTCLDY    68  65  90 SW6       30.10R
WALLOPS ISLAND FAIR      66  64  93 S3        30.11R
ACCOMACK*      FAIR      72  59  64 SW10      30.11S
$$

NCZ012>017-030>032-270900-
NORTH CENTRAL AND EASTERN NORTH CAROLINA

CITY           SKY/WX    TMP DP  RH WIND       PRES   REMARKS
ROANOKE RAPIDS FAIR      68  63  83 S6        30.13S
RALEIGH        MOCLDY    69  59  70 SW7       30.15R
ELIZABETH CITY MOCLDY    66  62  87 SW6       30.15R
AHOSKIE*       PTCLDY    68  62  81 S5        30.14S
EDENTON*       PTCLDY    68  58  68 SW5       30.16S
CURRITUCK*     CLEAR     70  62  77 SW5       30.15R
KILL DEVIL HLS CLEAR     68  63  83 SW5       30.15S
MANTEO         NOT AVBL
CAPE HATTERAS  CLEAR     71  63  75 SW6       30.16R
TARBORO*       PTSUNNY   69  64  82 S3        30.16R
GOLDSBORO      CLOUDY    69  69 100 SW3       30.14S
WASHINGTON     CLEAR     65  63  93 CALM      30.16S
GREENVILLE     CLEAR     64  64 100 CALM      30.16S
NEW BERN       PTCLDY    61  59  93 CALM      30.16S
WILMINGTON     PTCLDY    64  62  93 CALM      30.15R
$$

VAZ048-270900-
ELSEWHERE

CITY           SKY/WX    TMP DP  RH WIND       PRES   REMARKS
HARRISBURG PA  CLOUDY    72  65  78 CALM      30.03S
BALTIMORE      MOCLDY    70  63  78 W3        30.06R
ANNAPOLIS      CLEAR     68  66  93 SE7       30.06R
ANDREWS AFB    FAIR      71  63  78 S8        30.06R
PHILADELPHIA   PTCLDY    71  61  70 S6        30.06S
HENDERSON NC   PTCLDY    66  59  78 S8        30.13S
GREENSBORO     MOCLDY    70  61  73 S7        30.12S
ROCKY MOUNT    PTCLDY    68  64  87 S6        30.14S
$$

VAZ100-270900-
MARINE

STATION/POSITION TIME  TEMP    WIND        PRES    WAVE   SWELL
                       AIR SEA DIR/SP/G            HT/PER HT/PER
                 (UTC) (F)     (DEG/KT/KT) (MB)    (FT/S) (FT/S)
BRANDYWINE LGT   0700   69     220/ 11/ 12 1018.4R
CAPE MAY NJ      0700   67 67  170/  4/  7 1018.3R
LEWES DE         0700   72 61  220/  6/ 10 1018.4R
15NM E FENWICK I 0750   64 59              1019.3R   3/ 4
OCEAN-CITY-INLET 0700   62 60  220/ 11/ 13 1019.4R
WACHAPREAGUE VA  0700   72 74  220/  8/ 12 1019.0R
THOMAS POINT MD  0800   69 66  170/  9/ 10 1019.3R
GOOSES REEF MD   0800   70 65  220/  8/ 10 1019.1R   1/ 2
COVE POINT MD    0700   74     240/ 14/ 19 1018.4S
SOLOMONS ISLAND  0700   73 67  210/ 13/ 15   N/A
BISHOPS HEAD MD  0700   72 73  190/ 11/ 14 1018.5R
PINEY POINT MD   0700          230/ 13/ 15   N/A
POTOMAC MD       0800   71 69  240/ 10/ 12 1017.8R   2/ 2
CAMBRIDGE MD     0700   72 65  180/  2/  5 1017.3S
LEWISETTA VA     0700   74 72  230/ 11/ 13 1018.0R
RAPPAHANNOCK LGT 0700          190/ 15/ 16 1019.8R
STINGRAY PT      0800   72 68  220/ 14/ 17 1019.5R   1/ 2
YORK RVR RNG VA  0700   73     220/ 16/ 18 1018.7R
YORKTOWN VA      0700   73 67  210/  9/ 15 1019.1R
JAMESTOWN VA     0800   71 71  200/  8/ 12   N/A
DOMINION TERM VA 0700   71     220/ 13/ 15 1019.8R
KIPTOPEKE VA     0700      69  210/  8/ 11   N/A
CHES BAY BRIDGE  0700   72 62  200/ 18/ 20 1019.5R
CAPE HENRY VA    0700   72     210/ 12/ 16   N/A
CHESAPEAKE LGHT  0700   70     210/ 20/ 20 1020.2S
WILLOUBY STN VA  0700   72     210/ 14/ 16 1020.8R
CAPE HENRY BUOY  0712      66                N/A     2/ 9
1ST LANDING BUOY 0800   69 64  220/ 12/ 16 1020.3R   1/ 3
CAPE CHARLES BUO 0726      66                N/A     2/ 8   2/ 8
OFFSHORE WE BUOY 0721      61                N/A     2/ 8   2/ 8
64NM E OF VA BCH 0750   63 59  200/  8/  8 1020.9R   2/ 8   2/ 8
DUCK PIER NC     0700   71 60  220/  7/  9 1020.3R
44100 DUCK FRF   0724      65                N/A     2/ 8
44056 DUCK FRF   0711      62                N/A     1/ 9
OREGON INLET NC  0700   73 77  200/  9/ 11 1020.7R
HATTERAS NC      0700   72 74  180/  3/  8 1020.3S
DIAMOND SHLS NC  0750   76 72  180/ 10/ 14 1021.0R   2/ 8   2/ 8
CAPE LOOKOUC1F1C2F2C3F3C4F4C5F5C6F6C7F7C8M1C9!



USA.gov is the U.S. government's official web portal to all federal, state and local government web resources and services.